Regional Weather Roundup
Issued by NWS

Home | Current Version | Previous Version | Text Only | Print | Product List | Glossary On
Versions: 1 2 3 4 5 6 7 8 9 10 11 12 13 14 15 16 17 18 19 20 21 22 23 24 25 26 27 28 29 30 31 32 33 34 35 36 37 38 39 40 41 42 43 44 45 46 47 48 49 50
000
ASUS43 KDMX 281907
RWRIA

WEATHER ROUNDUP FOR IOWA
NATIONAL WEATHER SERVICE DES MOINES IA
200 PM CDT THU AUG 28 2014

NOTE: "FAIR" INDICATES FEW OR NO CLOUDS BELOW 12,000 FEET WITH NO
SIGNIFICANT WEATHER AND/OR OBSTRUCTIONS TO VISIBILITY.

* - THESE STATIONS ARE NOT NWS STATIONS...THUS NOT UNDER NWS
QUALITY CONTROL.  THEY ALSO DO NOT REPORT WEATHER SUCH
AS PRECIPITATION OR FOG.

IAZ001>003-012>014-020>022-031>034-043>046-282000-
   NORTHWEST IOWA

CITY           SKY/WX    TMP DP  RH WIND       PRES   REMARKS
CARROLL *      PTSUNNY   73  70  88 SE12      29.92F
DENISON *      CLOUDY    75  72  88 S8        29.90F
LE MARS *      CLOUDY    75  72  88 S10G17    29.89F
ORANGE CITY *  CLOUDY    73  68  83 SE6       29.91F
SHELDON *      PTSUNNY   70  68  94 SE12      29.91F
SIOUX CITY     PTSUNNY   79  71  76 S12G17    29.88F HX  82
SPENCER        LGT RAIN  69  66  90 E14       29.94F
STORM LAKE *   CLOUDY    73  73 100 S9        29.93F
$$

IAZ055>058-069>071-079>083-090>094-282000-
   SOUTHWEST IOWA

CITY           SKY/WX    TMP DP  RH WIND       PRES   REMARKS
ATLANTIC *     PTSUNNY   77  72  83 SE8       29.92S
AUDUBON *      MOSUNNY   81  75  83 S12       29.94F HX  86
CLARINDA *     PTSUNNY   81  75  83 S9        29.93F HX  86
COUNCIL BLFS * PTSUNNY   79  75  89 S9        29.90F HX  82
CRESTON *      PTSUNNY   75  72  88 SE13      29.95S
HARLAN  *      MOSUNNY   77  72  83 S7G15     29.95S
LAMONI         PTSUNNY   79  72  79 SE16      29.94F HX  82
RED OAK *      SUNNY     77  73  88 S9        29.93R
SHENANDOAH *   SUNNY     81  73  78 S8        29.92F HX  85
$$

IAZ047>049-059>061-072>074-084-282000-
   CENTRAL IOWA

CITY           SKY/WX    TMP DP  RH WIND       PRES   REMARKS
AMES           CLOUDY    74  70  87 SE13G21   29.96F
ANKENY *       CLOUDY    73  70  88 SE10G18   29.95F
CHARITON *     MOSUNNY   75  72  88 SE16G24   29.95F
DES MOINES     CLOUDY    76  70  82 SE12      29.95F
GRINNELL*      CLOUDY    70  68  94 SE12      29.99S
KNOXVILLE *    MOSUNNY   72  68  88 SE9G17    29.94F
MARSHALLTOWN   CLOUDY    69  67  93 SE13      29.97F
PELLA *        CLOUDY    72  70  94 SE7       29.96F
PERRY *        CLOUDY    75  70  83 SE12      29.94F
$$

IAZ004>006-015-016-023>025-035-036-282000-
   NORTH CENTRAL IOWA

CITY           SKY/WX    TMP DP  RH WIND       PRES   REMARKS
ALGONA *       LGT RAIN  66  66 100 E9G15     29.96F
CLARION *      CLOUDY    70  70 100 SE10G18   29.96S
ESTHERVILLE    RAIN      68  67  96 SE13      29.95F FOG
FORT DODGE *   CLOUDY    72  70  94 SE8       29.95S
MASON CITY     HVY RAIN  65  64  97 SE10      29.98F FOG
FOREST CITY *  LGT RAIN  64  64 100 E8        29.98F
IOWA FALLS *   CLOUDY    72  66  83 SE10      29.97F
$$

IAZ007>011-017>019-026>030-037>042-050>054-066-282000-
   NORTHEAST IOWA

CITY           SKY/WX    TMP DP  RH WIND       PRES   REMARKS
CEDAR RAPIDS   LGT RAIN  67  67 100 E15       29.99F
CHARLES CITY * CLOUDY    66  64  94 E13       30.00F
CLINTON *      CLOUDY    70  64  83 E8        30.08F
DECORAH *      CLOUDY    66  64  94 SE9       30.03F
DUBUQUE        CLOUDY    70  63  78 E10       30.07F
MONTICELLO *   CLOUDY    68  66  94 SE9       30.03F
OELWEIN *      MOSUNNY   68  64  88 SE14      30.02F
WATERLOO       CLOUDY    69  65  86 SE14      29.97F
$$

IAZ064-065-067-068-078-282000-
   EAST CENTRAL IOWA

CITY           SKY/WX    TMP DP  RH WIND       PRES   REMARKS
DAVENPORT      CLOUDY    70  65  84 E12       30.05F
IOWA CITY      LGT RAIN  66  66 100 E7        30.03F
MT. PLEASANT * CLOUDY    77  68  73 E7        29.99F
MUSCATINE *    CLOUDY    72  66  83 N7        30.03S
QUAD CITIES    CLOUDY    71  66  84 E13       30.04F
$$

IAZ062-063-075>077-085>089-095>099-282000-
   SOUTHEAST IOWA

CITY           SKY/WX    TMP DP  RH WIND       PRES   REMARKS
BURLINGTON     PTSUNNY   81  72  74 E8        29.99F HX  85
FAIRFIELD *    HVY RAIN  66  64  94 NE13      30.02F VSB 3/4
FORT MADISON * PTSUNNY   84  75  74 SE7       29.99F HX  92
KEOKUK *       PTSUNNY   84  75  74 E10       29.97F HX  92
OSKALOOSA *      N/A     68  68 100 E9        29.98F
CENTERVILLE *  LGT RAIN  72  72 100 SE8       30.02R
OTTUMWA        CLOUDY    67  66  97 E13       29.96F
WASHINGTON *   HVY RAIN  66  66 100 NW17G25   30.06R
$$

ABBREVIATIONS USED IN REMARKS
   TC - TEMPERATURES IN CELSIUS
  WCI - WIND CHILL INDEX
   HX - HEAT INDEX
  VSB - VISIBILITY
$$



USA.gov is the U.S. government's official web portal to all federal, state and local government web resources and services.